Погода в Кирове

Погода в Кирове : погода сейчас, прогноз погоды и архив. Всё, что Вы хотите узнать о погоде в Кирове!

Хотите узнать прогноз погоды в Кирове? Тогда Вам сюда: Погода в Кирове

Поиск расширенной информации на нашем сайте:

Полезная информация:

Другие новости

Новости СМИ2

Главная страница сайта

Новости сайта

03.07.2017

Напоминаем, что на нашем специализированном сайте Метеоцентр.Азия вы можете получить высокодетализированные автоматические прогнозы погоды по пунктам России, СНГ и мира в авиационном формате (включающие направление и скорость ветра, видимость, явления погоды, количество и форму облачности, нижнюю и верхнюю границу облачности).

Рекомендуем:

Погода в Кирове - сегодня

Время (UTC), дата Ветер
(°,м/с) 
Видим.   Явления Облачность Т
(°С)
Тd
(°С)
f(%) Тe
(°С)
Pmin
(гПа)
dP
(гПа)
Po
(мм)
O2
(г/м3)
Тmin Tmax R s Состояние
почвы
21 18.05.19 300 (СЗ) 1-3{08}  20000 м  {ливн. осадки}  8/4 600 м средняя 
[Sc|Ac trans]
+1.9 +1.4 96 +3  1009.8  -0.3  743  297           
00 19.05.19 320 (СЗ) 1-3{05}  20000 м  {ливн. осадки}  10/8 600 м верхняя 
[Sc|Ci fib]
+1.8 +0.7 92 +3  1009.5  -0.3  742  297           
03 19.05.19 310 (СЗ) 2-4{05}  20000 м    10/8 600 м верхняя 
[Sc|Ci fib]
+2.2 +0.6 89 +2  1009.4  -0.1  742  297  +1.3      влажная 
06 19.05.19 320 (СЗ) 3-8{08}  20000 м  слаб. ливневой дождь  10/8 300 м кучево-дожд., средняя 
[Cb cap|As trans]
+3.2 -0.3 78 +2  1010  0.7  743  296           
09 19.05.19 320 (СЗ) 3-7{09}  20000 м  слаб. ливневой дождь  9/9 300 м кучево-дожд. 
[Cb cap]
+3.8 +0.9 81 +3  1011.5  1.5  744  296           
12 19.05.19 320 (СЗ) 3-7{10}  20000 м  {ливн. осадки}  10/10 600 м кучево-дожд. 
[Cb calv]
+4.6 -0.5 69 +3  1013.5  746  295           
15 19.05.19 320 (СЗ) 3-6{10}  20000 м    9/9 600 м кучево-дожд. 
[Cb cap]
+4.2 +0.3 76 +3  1014.9  1.3  746  296    +4.8  0.1     
18 19.05.19 320 (СЗ) 2-4{06}  20000 м    10/8 600 м средняя 
[Sc diur, vesp|As op]
+4.2 +0.3 76 +4  1015.2  0.3  747  296           
21 19.05.19 320 (СЗ) 2-4{06}  20000 м  в посл. час ливневой дождь  8/6 600 м кучево-дожд., средняя, верхняя 
[Cb cap|Ac trans|Ci fib]
+3.8 +0.7 80 +3  1015.3  0.1  747  297           
00 20.05.19 320 (СЗ) 2-3{05}  20000 м  {ливн. осадки}  10/10 600 м 
[Sc]
+3.3 +1.2 86 +3  1015.3  747  297           
03 20.05.19 320 (СЗ) 2-5{05}  20000 м    9/9 600 м кучево-дожд. 
[Cb calv]
+3.8 +0.9 81 +3  1015.9  0.6  747  297  +3    0.0    влажная 
06 20.05.19 320 (СЗ) 2-5{06}  20000 м    8/3 600 м кучево-дожд., средняя, верхняя 
[Cb calv|Ac trans|Ci fib]
+8 +1.1 62 +8  1015.8  0.2  747  292           
09 20.05.19 360 (С) 4-11{11}  20000 м  слаб. ливневой дождь  8/8 600 м кучево-дожд. 
[Cb cap]
+8.1 +0 57 +7  1015.8  747  292           
12 20.05.19 330 (СЗ) 2-6{11}  20000 м  {ливн. осадки}  8/8 600 м кучево-дожд. 
[Cb calv]
+11.2 -2.7 38 +11  1015.5  747  290           
15 20.05.19 330 (СЗ) 2-5{09}  20000 м    8/5 600 м кучево-дожд., средняя 
[Cb calv|Ac trans]
+11 -3.8 35 +11  1015.9  0.3  748  290    +12  0.0     
18 20.05.19 тихо () -0{06}  20000 м    3/3 600 м 
[Sc]
+7.2 -4.4 43 +7  1016.7  0.6  748  294           
21 20.05.19 тихо () -0{01}  20000 м    ясно 
+3.6 -2 67 +4  1018  0.9  749  298           
00 21.05.19 тихо () -0{02}  20000 м    ясно 
+1 -2.9 75 +1  1018.7  0.5  749  301           
03 21.05.19 310 (СЗ) 1-2{03}  20000 м    ясно 
+4.6 -1.1 66 +5  1018.9  0.5  749  297  +0.9        сухая 
06 21.05.19 320 (СЗ) 2-6{08}  20000 м    3/3 600 м верхняя 
[Cu hum|Ci fib]
+9.8 -2.7 41 +10  1018.8  0.2  750  292           
09 21.05.19 320 (СЗ) 2-6{08}  20000 м    4/1 600 м верхняя 
[Cu hum|Ci fib]
+12.3 -3.6 33 +13  1017.7  -0.9  749  289           
12 21.05.19 310 (СЗ) 2-4{08}  20000 м    4/1 600 м верхняя 
[Cu hum|Ci fib]
+14.3 -4.1 28 +15  1016.6  -1  748  287           
15 21.05.19 320 (СЗ) 1-3{08}  20000 м    3/0 верхняя 
[Ci fib]
+14.7 -5.4 24 +16  1015.7  -0.7  748  286    +14.8       
18 21.05.19 тихо () -0{05}  20000 м    1/0 верхняя 
[Ci fib]
+7.5 -3.3 46 +8  1016.2  748  294           
21 21.05.19 240 (ЮЗ) 1-1{01}  20000 м    1/0 верхняя 
[Ci fib]
+2.3 -1.7 75 +3  1016.5  -0.1  748  299           
Время (UTC), дата Ветер
(°,м/с) 
Видим.   Явления Облачность Т
(°С)
Тd
(°С)
f(%) Тe
(°С)
Pmin
(гПа)
dP
(гПа)
Po
(мм)
O2
(г/м3)
Тmin Tmax R s Состояние
почвы

Для получения пояснительной информации подведите курсор к названию столбца.

ПОГОДА в Кирове - архив

Всё, что Вы хотите узнать о погоде в Кирове - удобно и подробно!

Выберите нужную дату (начиная с 1 января 2018* года) и нажмите кнопку "Найти".
Будут отображены архивные сводки погоды по пункту Киров, начиная с указанной даты.


Отображать данные в формате CSV (для использования в таблицах Excel)


Внимание! Наш архив погоды предназначен исключительно для личного некоммерческого использования в познавательных целях. Если Вам необходимы официальные справки о состоянии погоды (для производственных, юридических, коммерческих и т.п. целей), обращайтесь в органы Росгидромета.

*Примечание: данная дата относится к архиву по метеостанциям СССР (Россия, СНГ, Балтия).
Архив по метеостанциям Зарубежной Европы и Азии (кроме Китая) хранится 10 дней, по другим регионам земного шара (Китай, Африка, Америка, Австралия, Океания) - 1 день.

Киров - район местоположения метеостанции


Название, широта, долгота, высота метеостанции:
Киров 58.6°ш. 49.6°д. 158 м над ур. моря [Российская Федерация]

Дополнительная информация

В oтличие oт бoльшинства пoгoдных сайтoв мы публикуем пoдрoбную метеoинфoрмацию в детальнoм прoфессиoнальнoм фoрмате.

Характеристики температуры и влажнoсти вoздуха измеряются на высoте 2 м в тени вдали oт зданий и деревьев.
Скoрoсть ветра измеряется на высoте 10 м (на урoвне рoста челoвека скoрoсть ветра ниже в 1.5-2 раза). Если метеoстанция нахoдится в гoрoде или в лесу, тo скoрoсть ветра занижена на 2-4 м/с пo сравнению с oткрытым местoм. Скoрoсть ветра над акватoриями крупных рек и oзёр, а также на вершинах хoлмoв на 2-5 м/с выше, чем в oбычных услoвиях.
Атмoсфернoе давление в разных тoчках местнoсти мoжет значительнo oтличаться oт давления на метеoстанции, в зависимoсти oт услoвий рельефа (при пoдъёме на 10 м давление пoнижается примернo на 1 мм рт.ст.).